Tracking 17739 objects as of 27-June-2016
HD Live streaming from Space Station
objects crossing your sky now

AMC-6 (GE-6)

Track AMC-6 (GE-6) now!
AMC-6 (GE-6) is classified as:


NORAD ID: 26580
Int'l Code: 2000-067A
Perigee: 35,857.5 km
Apogee: 35,882.7 km
Inclination: 0.0 °
Period: 1,440.0 minutes
Semi major axis: 42241 km
RCS: 19.9526 m2 (large)
Launch date: October 21, 2000
Source: SOCIETE EUROPEENNE DES SATELLITES (SES)
Launch site: TYURATAM MISSILE AND SPACE COMPLEX (TTMTR)

Business (government and VSAT), media and entertainment; 28 Ku- and 24 C-band; CONUS, Canada, Mexico, Caribbean, Central America
Your satellite tracking list
Your tracking list is empty





NASA's NSSDC Master Catalog

Two Line Element Set (TLE):
1 26580U 00067A   16178.27845932 -.00000264  00000-0  00000+0 0  9999
2 26580   0.0172  19.9037 0002973  85.0336 198.1247  1.00269883 57458
Source of the keplerian elements: AFSPC

N2YO: 785